www.pogodaiklimat.ru

Погода и климат >> Архив погоды >> Россия >> Якутия >> Кюсюр


ПОГОДА в Кюсюре

  • Прогноз погоды в Кюсюре
  • Монитор погоды в Кюсюре

АРХИВ ПОГОДЫ в Кюсюре

Время (UTC), дата Ветер
(напр.,м/с)
 
Видим.   Явления Облачность Т
(С)
Тd
(С)
f
(%)
Тe
(С)
Тes
(С)
Комфортность P
(гПа)
Po
(гПа)
Тmin
(С)
Tmax
(С)
R
(мм)
R24
(мм)
S
(см)
06 15.04 СВ 4 50 км 6/0
[Ci fib]
-10.2 -19.9 45 -17 -14 1004.9 1000.7
09 15.04 СВ 5 50 км 4/0
[Ci fib]
-9.4 -20.0 42 -17 -16 1005.1 1000.9
12 15.04 СВ 4 50 км 3/0
[Ac trans]
-14.5 -22.7 50 -22 -22 1005.9 1001.6 -8.2
15 15.04 СВ 2 50 км 3/0
[Ac trans]
-18.0 -24.9 55 -23 -23 1006.3 1002.0
18 15.04 СВ 2 50 км 4/0
[Ac trans]
-22.8 -26.1 74 -29 -29 1007.1 1002.8
21 15.04 СВ 1 50 км 4/0
[Ac trans]
-27.2 -29.6 80 -31 -31 опасность
обморожения
1008.8 1004.4
00 16.04 СВ 1 50 км 4/0
[Ac trans]
-25.1 -29.0 70 -29 -26 1008.8 1004.4 -28.9 53
03 16.04 Ю 3 50 км 3/0
[Ac trans]
-17.6 -23.5 60 -25 -21 1009.0 1004.7
06 16.04 Ю 2 50 км 3/0
[Ci fib]
-13.6 -20.7 55 -18 -14 1009.1 1005.1
09 16.04 Ю 2 50 км 3/0
[Ac trans]
-11.2 -19.6 50 -16 -15 1010.0 1005.8
12 16.04 Ю 1 50 км 3/0
[Ac trans]
-14.3 -21.4 55 -17 -17 1011.6 1007.3 -10.3
15 16.04 штиль 0 50 км ясно -20.9 -24.9 70 -21 -21 1012.2 1007.8
18 16.04 штиль 0 50 км ясно -25.9 -28.4 79 -26 -26 1012.8 1008.3
21 16.04 С 1 50 км ясно -27.5 -30.0 79 -31 -31 опасность
обморожения
1013.6 1009.1
00 17.04 штиль 0 50 км ясно -20.4 -23.7 75 -20 -16 1013.8 1009.4 -29.7 52
03 17.04 штиль 0 50 км ясно -13.7 -20.8 55 -14 -6 1014.0 1009.7
06 17.04 З 2 50 км ясно -13.3 -21.5 50 -18 -14 1014.6 1010.3
09 17.04 штиль 0 50 км ясно -13.2 -20.3 55 -13 -12 1015.0 1010.7
12 17.04 З 2 50 км ясно -16.2 -23.2 55 -21 -21 1016.8 1012.5 -10.4
15 17.04 В 2 50 км ясно -20.7 -25.6 65 -27 -27 1017.4 1013.0
18 17.04 штиль 0 50 км ясно -24.7 -27.2 80 -25 -25 1017.5 1013.0
21 17.04 СЗ 1 50 км ясно -29.5 -32.0 79 -34 -33 опасность
обморожения
1017.8 1013.2
00 18.04 СВ 1 50 км ясно -23.7 -27.7 70 -27 -23 1017.2 1012.7 -30.3 52
03 18.04 СВ 1 50 км ясно -15.0 -22.0 55 -18 -11 1015.7 1011.4
06 18.04 штиль 0 50 км 3/0
[Ac trans]
-8.4 -19.7 40 -9 -3 1014.3 1010.1
09 18.04 ЮЗ 3 50 км 3/0
[Ac trans]
-7.2 -19.6 36 -12 -11 1014.5 1010.4
12 18.04 штиль 0 50 км 3/0
[Ac trans]
-12.4 -21.9 45 -12 -12 1015.2 1011.0 -6.7
15 18.04 СВ 2 50 км 4/0
[Ac trans Ci fib]
-19.0 -23.9 65 -25 -25 1015.6 1011.2
18 18.04 СВ 2 50 км 10/0
[Ac trans Cs]
-16.4 -20.6 70 -22 -22 1014.8 1010.5
21 18.04 ЮЗ 3 4000 м слаб. снег 10/0
[As op]
-9.6 -13.2 75 -15 -15 1014.8 1010.6
00 19.04 Ю 3 50 км {снег} 10/0
[Ac trans Cs]
-4.8 -16.1 41 -10 -8 1014.6 1010.5 -19.8 0.2 51
03 19.04 Ю 5 50 км {снег} 6/0
[Ac trans]
-2.9 -16.3 35 -9 -7 1014.9 1010.8
06 19.04 Ю 6
{11}
50 км позёмок 6/0
[Ac trans]
-1.7 -16.4 32 -8 -7 1014.7 1010.6
09 19.04 Ю 4 50 км {метель} 8/0
[Ac trans Ci fib]
-1.5 -17.4 29 -6 -6 1014.9 1010.8
12 19.04 Ю 2 50 км {метель} 4/0
[Ac trans Ci fib]
-6.9 -20.7 32 -11 -11 1014.8 1010.7 -0.9
15 19.04 штиль 0 50 км 4/0
[Ac trans Ci fib]
-11.0 -22.0 40 -11 -11 1015.2 1011.0
18 19.04 Ю 2 50 км 3/0
[Ac trans]
-16.3 -22.3 60 -22 -22 1016.5 1012.2
21 19.04 штиль 0 50 км ясно -19.3 -23.4 70 -19 -19 1017.3 1012.9
00 20.04 ЮВ 2 50 км ясно -16.6 -21.6 65 -22 -18 1017.2 1012.9 -20.4 50
03 20.04 СВ 2 50 км ясно -9.0 -17.7 49 -13 -7 1016.3 1012.1
06 20.04 СВ 3 50 км ясно -5.8 -15.4 47 -11 -7 1014.2 1010.1
09 20.04 СВ 2 50 км 4/0
[Ci fib]
-4.0 -15.9 39 -7 -6 1013.9 1009.8
12 20.04 СВ 4 50 км 10/0
[Ac trans Cs]
-6.9 -16.1 48 -13 -13 1012.1 1008.0 -3.3
15 20.04 С 4 50 км 10/0
[Ac trans Cs]
-7.2 -17.3 44 -13 -13 1010.0 1005.9
18 20.04 С 4 50 км 10/0
[Ac trans Cs]
-7.2 -17.3 44 -13 -13 1008.0 1003.9
21 20.04 С 3 50 км 10/0
[Ac und]
-5.6 -15.7 45 -11 -10 1006.3 1002.2
00 21.04 С 4 50 км 10/0
[Ac und]
-3.6 -13.8 45 -9 -8 1004.3 1000.2 -9.2 50
03 21.04 СВ 3 50 км 10/0
[Ac und]
-2.5 -14.1 40 -7 -5 1003.4 999.4
06 21.04 СВ 1 50 км 10/0
[Cs]
+0.2 -15.3 30 -1 +4 1002.2 998.2
09 21.04 штиль 0 50 км 6/0
[Ci fib]
+0.9 -14.9 30 +1 +3 1002.2 998.2
12 21.04 В 2 50 км 6/0
[Ci fib]
-3.9 -17.1 35 -7 -7 1002.7 998.6 +2.1
15 21.04 В 2 50 км 8/0
[Ac trans]
-9.9 -18.4 50 -14 -14 1002.7 998.5
18 21.04 СВ 1 50 км 4/0
[Ac trans]
-13.1 -18.3 65 -15 -15 1003.1 998.8
21 21.04 СВ 1 50 км 10/0
[Ac und]
-12.8 -17.1 70 -15 -15 1003.6 999.3
00 22.04 СВ 1 4000 м слаб. снег 10/0
[As op]
-9.7 -12.8 78 -12 -11 1004.2 1000.0 -16.2 0.5 50
03 22.04 штиль 0 10 км слаб. снег 10/0
[Ac trans Cs]
-0.7 -5.6 69 -2 +4 1003.6 999.6

 

Местоположение метеостанции Кюсюр (Якутия, Россия): широта 70.68 долгота 127.40 высота над уровнем моря 33 м.

В архиве по умолчанию представлена погода в Кюсюре за последнюю неделю. Архивные данные за месяц целиком и за предыдущие месяцы, начиная с января 2011 года, Вы можете получить, выбрав интересующий диапазон дат из раскрывающегося списка и нажав кнопку "Ввод!".


*Определитесь, кто Вы:
робот инопланетянин человек

Внимание! Время в таблицах - всемирное. Для получения местного времени необходимо прибавить поправку, которая равна 9 ч.

Смотрите также архив погоды в соседних городах и на ближайших метеорологических станциях:

Погода в Тикси (Якутия, Россия) (114 км)
Погода на Мысе Быков (Якутия, Россия) (159 км)
Погода на Столб Острове (Якутия, Россия) (195 км)
Погода в Тюмяти (Якутия, Россия) (196 км)
Погода в Джарджане (Якутия, Россия) (253 км)
Погода в Усть-Куйге (Якутия, Россия) (316 км)
Погода в Юбилейной (Якутия, Россия) (323 км)
Погода в Батагай-Алыте (Якутия, Россия) (343 км)
Погода на Усть-Оленеке (Якутия, Россия) (368 км)
Погода в Сухане (Якутия, Россия) (419 км)

Пояснения к столбцам:

Ветер - указаны скорость ветра в м/с - средняя за 10 мин, порывы в срок и между сроками (в фигурных скобках) и направление, откуда дует ветер: С - северный, СВ - северо-восточный, В - восточный, ЮВ - юго-восточный, Ю - южный, ЮЗ - юго-западный, З - западный, СЗ - северо-западный.
Видимость - горизонтальная дальность видимости в метрах или километрах. При видимости от 1 до 10 км при отсутствии осадков обычно наблюдается дымка, при ухудшении видимости до 1 км и менее - туман. В сухую погоду видимость может ухудшаться дымом, пылью или мглою.
Явления - указаны атмосферные явления, наблюдавшиеся в срок или в последний час перед сроком; фигурными скобками обозначены явления, наблюдавшиеся между сроками (за 1-3 часа до срока); квадратными скобками обозначены град или гололедные отложения с указанием их диаметра в мм.
Облачность - указаны через наклонную черту общая и нижняя облачность в баллах и высота нижней границы облаков в метрах; квадратными скобками обозначены формы облаков: Ci - перистые, Cs - перисто-слоистые, Cc - перисто-кучевые, Ac - высококучевые, As - высокослоистые, Sc - слоисто-кучевые, Ns - слоисто-дождевые, Cu - кучевые, Cb - кучево-дождевые. Подробнее классификацию облаков см. в Атласе облаков (PDF).
T - Температура воздуха - температура, измеренная на высоте 2 м над землей.
Td - Температура точки росы - температура, при понижении до которой содержащийся в воздухе водяной пар достигнет насыщения.
f - Относительная влажность воздуха - влажноcть воздуха, измеренная на высоте 2 м над землей.
Te - Эффективная температура - температура, которую ощущает одетый по сезону человек в тени. Характеристика душности погоды. При расчете учитывается влияние влажности воздуха и скорости ветра на теплоощущения человека.
Tes - Эффективная температура на солнце - температура, которую ощущает человек, с поправкой на солнечный нагрев. Характеристика знойности погоды. Зависит от высоты солнца над горизонтом, облачности и скорости ветра. Ночью, в пасмурную погоду, а также при ветре 12 м/с и более поправка равна нулю.
P - Атмосферное давление - приведенное к уровню моря атмосферное давление.
Po - Атмосферное давление - измеренное на уровне метеостанции атмосферное давление.
Tmin - Минимальная температура - минимум температуры воздуха на высоте 2 м над землей.
Tmax - Максимальная температура - максимум температуры воздуха на высоте 2 м над землей.
R - Количество осадков - Количество выпавших осадков за период времени, мм. При наведении курсора мыши на число - период времени, за который выпало указанное количество осадков.
R24 - Количество осадков - Количество выпавших осадков за 24 часа, мм.
S - Снежный покров - Высота снежного покрова, см. При наведении курсора мыши на число - состояние снежного покрова и степень покрытия местности в баллах.